Powrót do katalogu

HULIANWANG DIGUI-02

AktywnyŁącznośćPO
NORAD 62324·PAYLOAD·🇨🇳 China

Wystrzelony Dec 16, 2024 z Wenchang Space Launch Site

Loading…

Następne Przeloty (najbliższe 24 godziny)

TLE

ŚwieżeSource: Space-Track

Epoka: Sep 14, 2026, 14:32 UTC

1 62324U 24240B   26257.60592719  .00000022  00000-0  17191-4 0  9997
2 62324  86.5024 313.2712 0001806  90.1256 270.0085 13.24413977 84488

Śledź HULIANWANG DIGUI-02 w czasie rzeczywistym z AllMySat

Download on the App Store